Wind_Speed
38 38 43 46 46 45 42 39 36 32 27 23 20 17 16 14 14 17 16 13 13 14 14 17 19 16 14 20 26 27 27 30 32 29 29 29 28 26 23 21 18 15 14 12 10 9 8 6 5 6 8 11 14 14 14 14 13 12 11 10 10 10 9 8 7 6 4 5 6 5 4 4 3 3 3 3 4 4 5 6 7 8 9 10 12 13
38 41 47 47 43 41 40 37 34 32 28 23 20 17 16 16 15 18 19 15 13 13 13 16 20 16 16 27 33 29 25 26 28 27 28 29 28 26 24 22 20 16 14 13 11 10 8 7 7 7 8 11 14 14 14 14 13 11 10 9 9 8 8 7 6 5 4 4 4 3 3 3 3 4 3 3 4 5 6 7 8 9 10 12 13 15
39 43 46 43 41 39 38 37 34 32 30 25 21 19 17 17 17 19 21 17 13 13 15 17 18 15 16 28 35 32 29 27 27 29 29 29 28 27 26 24 20 17 14 13 11 10 9 8 9 10 11 11 13 13 12 12 11 10 9 7 7 7 7 7 6 4 2 2 2 2 2 3 4 4 4 5 5 6 6 7 8 10 11 13 14 15
37 40 42 41 39 38 37 37 35 33 32 28 24 21 20 19 18 18 17 15 13 14 18 19 18 14 15 27 35 35 35 34 32 33 33 31 29 27 27 24 19 16 13 12 11 10 9 10 11 12 13 12 11 11 10 10 9 8 7 6 5 5 6 6 5 4 2 1 3 4 4 5 6 6 6 6 6 7 7 8 10 11 12 13 15 16
34 31 37 40 38 38 37 37 37 35 33 31 27 24 23 22 20 17 13 10 11 12 15 17 13 10 14 27 38 40 40 39 36 35 34 31 30 28 26 23 19 15 14 13 11 10 10 11 12 13 13 11 11 11 10 9 8 7 6 5 4 3 3 4 3 2 2 3 4 5 6 7 7 7 7 7 7 7 8 10 11 12 13 14 16 17
33 25 30 39 39 39 38 38 39 37 34 32 29 28 26 24 22 18 13 7 7 8 12 14 8 8 15 27 37 41 41 41 38 35 33 31 30 29 25 22 19 17 16 14 12 11 10 11 13 13 13 12 12 11 11 10 8 7 6 4 3 2 3 3 3 3 4 5 6 7 8 8 8 8 8 7 7 8 9 11 12 13 14 15 16 18
35 26 26 36 39 39 38 39 40 38 34 33 32 30 28 25 22 20 15 9 7 6 9 15 12 7 14 25 33 40 41 42 39 33 32 33 30 29 26 22 20 19 18 16 14 13 11 12 13 14 13 13 13 12 12 11 9 8 7 5 5 5 5 5 5 6 6 7 8 8 9 9 9 8 8 8 8 9 11 12 13 14 15 16 18 19
36 32 27 31 37 39 40 40 41 39 35 34 33 31 29 28 24 21 17 13 12 11 11 16 20 14 16 25 32 39 41 41 40 34 34 36 32 30 27 23 22 21 19 18 16 14 13 13 15 15 15 14 13 13 14 13 11 10 9 6 7 7 7 7 8 9 9 9 9 9 9 9 9 9 9 9 10 12 13 14 14 15 15 17 18 19
30 36 33 30 35 40 43 42 40 38 36 34 32 30 29 26 24 21 18 16 16 16 15 19 23 13 14 25 31 35 39 40 41 38 36 36 32 30 28 25 24 23 21 19 16 15 14 14 16 16 16 15 15 15 17 15 13 13 11 8 9 9 9 10 10 11 10 10 10 9 9 9 10 10 10 11 13 14 15 15 15 15 16 17 18 19
23 32 34 31 34 40 42 40 38 37 35 34 31 28 26 22 20 17 15 17 17 15 17 21 24 12 8 24 30 30 35 38 41 39 37 37 33 31 30 27 26 24 22 20 17 16 16 16 16 16 16 15 16 17 18 18 17 15 13 11 12 12 12 12 12 12 11 10 9 9 9 10 11 12 12 14 15 16 17 17 16 16 16 17 18 18
22 22 30 33 34 37 38 37 36 35 32 32 31 27 22 17 18 14 15 19 12 12 20 22 26 19 7 19 31 32 35 38 39 38 37 38 36 34 33 29 27 26 24 22 19 18 19 18 17 17 16 16 16 17 19 20 20 18 16 15 15 14 14 14 14 13 10 9 9 9 10 11 12 13 15 16 17 17 18 17 17 16 16 16 16 16
26 19 26 35 33 32 34 35 35 32 30 30 28 26 18 13 15 13 15 18 7 7 20 21 24 25 12 19 33 33 34 35 36 39 41 40 38 36 34 32 30 29 26 23 20 21 21 20 19 18 17 16 16 16 19 21 21 19 19 19 18 17 16 16 14 12 10 8 9 9 11 12 14 15 16 17 17 17 17 17 17 16 15 15 15 15
31 23 23 30 32 31 31 33 33 30 31 31 27 25 17 7 8 9 7 9 6 6 12 14 20 23 15 21 32 32 33 35 36 39 42 41 39 37 36 34 32 30 27 25 23 23 23 21 20 19 19 17 16 17 19 20 21 21 21 21 20 19 17 16 13 10 9 9 9 11 12 14 15 16 17 17 17 17 17 16 15 15 15 15 15 15
28 24 24 28 31 33 32 33 35 34 33 35 32 28 19 7 4 6 3 0 4 7 8 13 18 15 11 17 29 36 35 36 38 40 39 38 39 39 38 36 34 31 28 26 25 23 24 24 23 22 21 19 18 19 20 20 20 21 22 21 21 19 18 15 12 10 9 9 10 12 13 15 16 17 17 18 17 17 16 15 14 14 14 14 15 16
25 20 25 32 31 33 35 34 34 35 34 35 37 32 24 17 6 3 5 2 3 4 5 14 14 7 7 11 24 39 39 36 39 38 36 37 39 39 39 37 35 32 29 27 25 25 25 26 25 24 23 21 21 22 21 20 21 22 22 21 21 19 17 14 12 11 10 10 11 12 13 15 16 17 17 17 17 16 15 15 14 14 15 15 15 16
28 19 21 29 31 30 33 33 30 30 30 30 34 34 32 31 17 2 5 9 9 6 4 11 8 2 7 10 20 37 39 35 36 36 37 39 40 40 38 37 35 32 30 28 27 26 26 26 26 26 24 22 22 23 23 21 22 22 22 21 21 18 16 14 12 11 11 11 11 12 13 14 15 15 16 16 15 15 15 15 15 16 17 17 17 16
24 21 19 23 30 31 28 32 32 27 25 24 30 38 39 35 24 9 3 7 10 7 4 7 5 5 10 10 19 33 37 35 33 35 39 39 39 39 37 36 34 32 31 29 27 26 26 27 28 27 25 23 23 23 22 21 21 21 21 21 19 18 16 14 12 10 11 11 11 12 12 13 14 14 14 14 14 15 15 16 17 18 18 18 17 17
18 17 22 23 25 30 26 25 32 31 24 24 30 36 33 25 25 21 7 3 4 3 2 5 6 11 13 11 18 30 37 39 35 33 36 37 37 37 36 35 34 32 31 29 27 26 26 27 28 27 25 24 23 23 23 22 21 20 21 20 19 18 15 12 11 11 11 11 11 11 11 12 13 13 13 13 14 15 16 18 19 19 19 19 19 19
19 13 20 26 22 25 26 21 27 33 29 26 26 28 25 19 22 24 12 2 3 2 1 4 6 13 18 18 22 26 31 39 40 35 33 34 35 36 36 35 33 31 30 29 28 27 27 28 28 26 24 24 24 23 23 22 22 21 21 20 19 16 14 12 11 11 11 11 11 10 11 11 12 13 13 14 16 17 18 19 20 20 20 20 20 20
21 14 12 23 24 21 25 27 29 33 35 31 25 23 26 24 22 22 15 7 6 4 2 3 5 11 20 23 24 23 25 31 39 39 35 33 34 35 35 34 33 31 30 30 29 27 28 28 27 25 23 23 23 22 22 22 21 21 20 19 17 14 13 12 11 11 11 10 10 10 10 11 12 13 14 16 17 19 19 20 20 20 20 20 21 21
20 20 11 16 25 26 28 33 33 31 34 37 31 26 29 28 22 19 17 12 6 5 4 4 2 8 17 22 21 22 24 26 33 39 38 36 36 36 35 34 32 30 30 30 29 27 28 27 24 22 21 22 22 22 22 21 20 20 19 17 15 14 13 12 11 11 11 10 10 10 10 11 12 13 14 15 17 19 20 20 21 21 21 21 22 22
16 19 18 14 22 31 33 32 30 28 29 34 34 32 32 31 24 13 10 12 10 6 6 6 2 6 14 22 22 21 24 25 27 33 36 36 36 36 35 32 29 29 29 29 28 26 24 22 21 20 19 20 21 22 22 20 20 20 18 16 15 13 12 11 11 11 11 10 11 11 11 11 12 12 13 14 16 18 20 21 22 23 23 23 24 24
17 13 18 17 17 25 29 27 25 25 26 28 31 32 31 31 30 19 10 11 11 6 6 6 2 3 13 23 26 24 24 24 25 28 31 33 34 32 29 27 27 27 26 26 27 24 20 19 19 18 18 19 20 21 21 20 19 18 17 16 14 13 12 12 12 11 11 11 11 11 11 12 12 13 14 15 16 18 19 21 22 23 24 25 25 26
24 13 12 13 12 14 21 25 27 25 25 28 31 33 32 30 32 28 18 15 15 11 9 6 1 3 12 21 26 25 23 23 25 27 28 30 29 27 26 27 27 26 24 25 25 22 18 18 17 16 17 18 18 19 19 18 18 17 16 15 13 12 12 12 12 11 11 12 12 12 13 13 14 15 16 16 17 18 19 20 21 22 24 25 26 26
27 18 12 7 4 5 11 17 21 24 27 30 32 34 35 31 29 27 20 15 16 19 19 10 4 8 15 20 25 24 22 23 25 25 26 27 27 27 27 27 25 24 24 25 24 21 18 17 16 15 16 17 17 18 18 17 16 15 14 13 12 12 12 12 12 12 13 13 13 14 14 15 16 16 17 17 18 19 19 20 21 22 24 25 26 27
27 21 17 9 4 5 6 5 13 24 30 30 31 32 33 31 27 23 19 16 14 18 22 16 9 14 18 21 25 25 24 24 25 25 25 25 26 27 27 26 25 24 24 24 24 21 18 16 15 14 15 16 16 17 17 16 14 13 12 13 13 13 13 13 13 14 14 14 14 14 15 16 16 17 17 19 19 20 21 22 23 24 25 27 28 29
28 24 21 15 11 10 7 4 10 21 28 28 27 28 28 27 24 20 17 16 14 16 19 18 15 20 23 24 26 27 25 25 26 27 27 26 25 25 26 25 24 23 23 23 23 20 18 16 15 14 15 15 16 16 15 14 13 12 13 13 14 13 13 13 14 15 15 15 15 15 16 16 17 18 19 20 21 22 23 24 25 26 27 28 29 30
27 27 23 18 14 14 12 8 8 13 21 26 26 27 26 25 24 22 18 15 13 13 16 18 18 20 22 23 25 27 27 27 27 28 28 27 26 25 25 24 22 21 21 22 21 18 15 14 14 14 15 15 15 15 14 13 13 13 13 14 13 13 13 14 15 16 16 15 15 16 16 17 18 19 20 22 23 24 24 25 26 27 28 29 30 31
25 26 25 20 14 12 12 13 11 8 12 19 22 23 24 23 23 24 24 21 16 14 16 20 21 21 21 20 22 26 28 29 28 27 26 26 24 23 23 22 21 20 20 20 18 14 12 13 14 15 15 16 15 15 14 14 13 13 13 13 13 13 14 16 16 16 15 15 16 16 17 18 19 20 21 22 23 24 25 25 26 27 28 29 30 31
23 22 25 23 17 12 9 10 12 12 10 12 15 17 19 20 21 22 24 25 22 17 18 20 21 21 19 17 21 25 28 28 26 24 24 24 24 23 23 22 20 17 16 14 12 11 12 15 16 16 16 16 16 15 14 13 13 13 13 13 13 14 15 16 16 16 15 16 16 17 17 18 19 19 20 21 22 23 24 25 26 27 27 28 29 30
25 21 23 26 21 14 10 6 6 10 12 12 12 13 16 19 21 21 23 24 22 19 18 17 18 19 18 17 21 25 27 27 26 24 24 25 24 23 22 19 14 12 10 9 10 12 14 16 17 18 18 18 17 15 14 13 12 12 13 13 13 15 15 16 16 16 16 16 16 16 17 17 18 19 20 21 22 23 23 24 26 27 27 28 29 30
27 21 21 25 20 15 14 11 6 6 10 12 13 14 16 19 21 22 24 23 21 19 19 20 20 18 17 20 23 25 26 27 26 25 25 25 24 21 17 12 9 8 9 9 10 12 14 16 17 18 18 18 16 14 12 11 10 10 12 13 14 15 15 15 16 15 15 15 15 15 16 17 19 20 21 22 22 23 24 25 26 26 27 28 29 30
31 24 22 24 19 13 14 13 8 6 6 7 11 14 16 19 19 21 23 23 20 18 18 20 20 17 16 19 22 22 24 25 24 23 24 24 22 18 13 9 8 8 9 10 12 13 14 15 16 17 16 15 14 11 9 9 9 10 12 13 14 15 15 14 14 13 13 13 14 15 16 18 19 20 21 22 23 23 24 24 25 25 26 27 27 28
32 29 24 25 21 15 14 12 7 4 3 5 9 12 14 17 18 19 22 22 20 18 16 15 15 15 15 17 17 16 17 21 22 22 21 19 17 16 14 11 10 12 13 13 14 14 14 14 14 15 14 13 12 11 9 9 10 11 13 14 14 14 12 12 11 11 11 12 14 15 16 17 18 19 20 20 21 21 21 22 23 23 24 24 24 25
30 31 28 26 22 19 19 16 8 3 6 8 9 10 11 13 15 17 20 21 20 19 15 13 13 14 16 16 17 16 18 21 23 23 21 18 15 15 14 11 12 16 16 15 14 14 13 13 12 13 13 12 11 10 10 10 11 13 13 13 12 10 9 9 9 10 12 13 14 14 15 16 16 17 17 17 18 18 19 20 21 21 22 22 23 23
28 31 28 24 20 18 18 15 7 7 10 10 9 11 12 12 14 16 19 21 20 19 17 16 15 16 18 19 21 22 23 25 27 26 23 20 18 17 14 13 14 18 17 15 13 13 13 12 12 12 12 12 11 11 11 12 12 13 11 10 8 8 8 8 9 10 11 12 12 12 13 13 14 14 15 16 16 17 18 19 20 21 22 23 24 25
26 29 28 22 17 15 15 12 7 7 11 13 13 12 12 12 12 14 16 18 20 20 20 19 18 19 20 21 23 25 25 27 29 28 25 23 21 20 17 16 18 20 19 17 14 13 14 13 13 12 12 12 12 12 12 12 11 10 8 7 7 7 8 9 9 10 9 9 10 10 10 11 12 13 14 15 16 17 18 19 20 22 23 24 25 26
22 24 25 22 16 16 15 10 5 3 8 14 15 13 13 13 12 11 12 15 20 22 21 21 21 20 21 23 26 28 29 30 31 29 28 27 25 22 21 22 23 22 20 17 14 15 16 15 15 14 13 12 12 12 12 11 9 8 7 7 8 8 8 8 7 7 6 6 7 7 9 10 11 13 14 15 16 17 18 20 21 22 24 25 26 28
21 21 23 22 19 22 20 10 5 7 10 14 15 14 14 15 15 13 11 15 22 23 21 22 22 20 21 22 25 28 31 32 31 29 30 31 28 24 24 25 25 23 20 17 14 14 16 15 15 14 13 13 12 12 11 9 8 7 8 8 8 7 7 6 5 4 3 4 6 7 9 11 12 14 15 15 16 18 19 21 22 24 25 27 28 29
17 17 20 19 18 23 23 13 9 11 12 12 15 17 17 18 19 15 9 13 22 23 20 20 21 21 20 21 22 25 27 27 24 25 29 30 27 25 24 25 25 24 20 16 13 14 14 14 14 14 13 13 12 11 10 9 8 8 8 8 7 6 4 3 2 1 3 6 8 10 11 12 13 14 14 15 17 19 21 22 23 25 26 27 29 29
13 13 15 14 14 20 22 14 9 10 11 12 15 17 18 20 23 21 15 13 17 20 19 18 19 21 20 20 20 23 24 22 19 19 25 28 27 27 27 27 26 24 20 15 13 13 14 14 14 14 13 12 11 10 9 9 8 8 7 6 6 4 3 2 2 4 7 8 10 11 12 12 13 13 14 16 18 20 21 22 23 25 26 27 28 29
14 13 14 13 13 16 19 14 8 9 13 15 16 19 20 22 26 29 24 16 14 19 22 20 19 20 20 18 18 19 20 20 16 16 21 26 28 28 30 30 28 24 20 16 13 12 13 14 14 13 12 11 10 10 9 9 8 7 7 6 5 4 4 5 6 7 9 10 10 11 11 12 12 13 15 17 18 19 20 22 23 24 26 27 28 28
16 15 15 17 15 13 15 12 5 7 14 18 20 23 25 27 29 29 26 21 19 20 23 22 21 20 20 20 19 17 18 20 18 17 20 25 27 28 30 31 28 23 18 15 14 13 13 13 13 12 11 10 10 10 10 9 8 8 7 6 5 5 6 8 9 9 10 10 10 10 11 11 12 13 15 16 17 19 20 21 22 24 25 26 27 27
21 19 18 21 19 16 16 15 11 12 15 17 20 23 24 25 27 26 24 24 23 21 22 25 24 23 22 22 21 20 22 23 21 19 21 24 26 28 29 28 25 22 18 15 14 14 14 13 12 12 11 10 10 10 11 10 9 8 7 7 7 8 9 10 10 10 10 9 9 9 10 11 12 13 14 15 17 18 19 20 21 23 24 25 26 27
23 23 21 22 23 21 19 19 18 17 15 14 17 20 20 21 24 25 24 23 22 21 21 24 25 25 24 24 24 23 25 24 22 21 22 23 25 27 27 26 24 22 19 16 15 15 15 13 12 11 11 11 11 12 11 10 9 8 8 9 9 10 10 10 10 10 9 8 8 8 9 10 12 13 14 15 17 17 18 19 20 22 23 24 26 27
22 24 22 20 22 23 22 20 19 17 15 13 14 16 18 18 20 22 23 21 20 20 20 20 23 25 25 26 27 26 26 25 24 24 24 25 26 27 27 27 25 22 18 16 15 15 14 13 12 11 11 12 13 12 11 10 10 10 10 11 11 10 10 10 9 8 8 7 8 8 9 10 11 12 13 15 16 16 18 19 20 21 23 24 25 27
22 23 23 21 21 22 21 21 20 18 16 13 12 14 16 17 17 19 21 21 19 20 19 19 20 23 25 27 28 28 27 27 26 26 27 27 27 28 28 25 22 19 17 15 14 14 13 12 12 12 12 13 13 12 12 11 12 12 11 11 11 10 9 8 7 7 6 6 7 8 9 10 11 12 13 14 15 16 17 18 20 21 22 24 25 26
19 20 23 24 23 22 21 20 19 19 17 14 13 13 14 15 15 17 20 21 19 19 19 18 20 23 26 28 29 29 29 28 27 27 28 28 27 27 25 22 19 17 16 14 13 13 13 12 12 13 13 13 13 13 13 12 12 12 12 11 10 9 8 7 6 6 5 5 6 7 8 9 10 11 12 13 14 16 17 18 20 21 23 24 25 26
15 17 19 22 22 22 22 20 18 18 18 16 15 14 14 14 14 15 18 19 18 18 19 19 21 23 26 28 29 29 28 28 27 27 27 28 28 26 22 19 17 16 15 14 13 13 13 13 14 14 14 14 14 14 13 13 13 12 11 10 10 8 7 6 5 5 4 4 5 7 8 9 10 10 12 13 14 16 17 18 20 22 23 24 25 26
14 15 17 18 19 19 19 18 17 17 17 16 15 15 15 15 14 15 16 16 16 16 18 21 23 25 26 28 28 28 28 28 27 26 26 27 27 23 18 16 16 16 15 14 14 14 15 15 15 15 15 15 15 14 14 14 13 11 10 10 8 7 6 5 4 4 4 4 5 7 8 9 10 11 12 14 15 16 18 19 20 22 23 24 25 26
13 13 14 14 13 11 12 14 15 16 16 14 14 15 16 15 15 16 15 15 15 16 18 21 24 26 27 28 28 28 28 27 27 26 26 26 23 19 16 16 16 16 15 15 15 15 16 17 17 16 16 16 16 15 15 14 12 11 10 8 7 6 5 4 4 4 4 5 6 7 9 10 11 11 13 14 15 16 18 19 20 21 22 23 24 25
Wind_Direction
196 199 204 206 206 203 203 206 209 207 204 205 205 207 210 209 209 204 195 186 196 210 216 221 229 231 212 200 206 211 203 197 201 203 195 184 186 197 200 201 203 205 209 216 213 205 210 211 200 193 178 162 154 151 148 146 143 143 142 142 142 139 137 139 148 161 168 159 157 162 168 176 191 209 218 231 247 254 261 265 269 273 279 285 289 296
198 204 208 207 206 204 204 206 208 208 206 207 207 207 211 210 205 202 200 199 204 219 226 228 235 231 200 195 201 208 213 211 208 211 203 188 189 199 201 198 199 202 209 215 208 200 211 210 198 198 185 164 154 152 149 145 142 139 138 140 142 143 141 138 144 153 165 169 175 182 179 190 213 230 240 250 255 257 260 261 264 266 270 276 281 287
202 208 209 208 207 205 205 207 208 209 210 211 209 211 212 208 204 201 203 209 219 231 236 240 243 232 199 196 201 205 214 220 217 219 215 203 200 201 199 199 199 205 213 216 207 202 212 205 196 197 188 170 158 155 152 148 145 142 142 143 142 141 135 132 138 141 160 197 232 249 248 243 242 245 250 254 255 258 265 266 268 271 274 277 279 282
205 211 209 206 207 206 205 207 208 210 213 214 213 213 210 205 205 204 203 215 231 235 240 246 244 233 203 195 199 204 210 212 209 211 210 206 208 202 197 201 204 210 218 220 211 205 210 205 198 195 188 178 167 161 161 157 155 154 151 150 144 137 131 132 137 141 166 247 273 273 272 264 259 259 259 261 259 259 269 277 280 281 281 281 281 281
207 213 210 205 206 207 207 208 208 211 214 215 216 212 207 206 207 203 193 209 235 238 245 245 229 207 192 191 196 200 207 207 197 195 198 199 204 202 198 202 204 210 222 225 219 213 209 204 204 200 189 187 184 175 176 178 176 176 172 168 159 148 147 151 163 180 228 263 270 271 269 266 265 267 271 272 268 266 274 283 287 286 284 283 281 281
209 211 211 207 205 206 208 209 208 210 213 216 215 207 205 209 211 209 204 219 242 235 242 238 206 166 180 189 194 196 204 208 196 189 195 198 200 202 202 201 202 210 220 223 223 219 212 203 206 210 200 196 198 193 193 195 196 202 204 203 202 212 220 226 244 261 272 272 271 273 270 270 270 272 275 272 270 274 281 288 290 288 286 284 283 283
211 206 210 209 207 206 209 210 209 210 213 217 213 203 206 214 217 220 221 232 242 234 244 232 213 183 180 188 194 195 199 206 200 190 197 203 200 201 202 201 206 214 218 221 222 218 216 209 206 213 213 210 211 211 210 209 211 218 223 228 234 247 259 271 283 286 285 280 277 277 275 277 278 277 276 273 277 285 288 291 290 286 285 285 286 287
214 205 205 209 208 208 209 210 209 208 212 217 210 204 212 219 220 224 227 236 247 258 266 231 214 202 188 188 191 195 197 200 199 191 197 204 198 198 203 203 210 215 216 222 223 220 222 217 209 212 220 225 230 233 230 225 226 231 233 240 251 264 277 282 289 289 287 286 284 283 282 282 283 282 281 283 290 294 293 292 289 285 284 285 286 287
216 209 205 204 206 210 211 209 208 208 212 216 209 208 220 223 224 229 233 245 254 261 261 227 211 202 194 192 188 192 195 194 195 193 198 203 196 196 205 206 210 214 216 220 222 223 225 218 212 214 222 230 237 242 244 242 242 244 245 251 260 270 278 281 286 287 286 288 287 286 285 284 286 287 289 293 296 297 296 292 288 284 283 283 284 286
218 215 212 207 207 211 213 211 210 208 212 215 210 214 225 227 228 231 238 252 256 254 251 227 209 201 201 198 188 189 197 194 192 195 201 203 198 200 207 209 211 211 213 218 223 230 232 225 217 219 226 233 237 240 246 249 251 255 257 261 265 269 275 279 283 286 285 286 287 287 286 285 288 291 294 298 298 298 296 292 289 286 284 283 282 284
218 219 215 213 213 213 213 213 212 211 212 214 213 218 229 232 230 236 244 251 256 245 250 240 211 203 210 202 194 192 201 202 195 193 197 198 198 203 208 209 209 205 209 218 225 234 240 236 227 226 232 236 241 243 246 250 252 258 263 265 267 269 274 278 281 282 281 281 284 286 286 287 290 293 295 296 297 295 294 292 290 288 284 281 280 282
215 218 217 215 214 213 213 213 212 211 210 212 216 218 224 231 228 239 243 236 240 242 253 252 216 207 212 207 201 196 200 207 205 200 197 197 198 201 205 209 209 208 216 225 229 234 241 243 236 234 239 240 244 249 252 255 256 259 263 263 265 269 272 275 277 276 273 275 280 281 285 288 291 293 294 294 294 292 290 290 288 286 281 278 279 280
213 215 219 216 213 210 210 211 209 209 208 210 214 211 207 204 207 223 231 221 221 230 249 244 209 206 217 213 206 201 200 207 212 208 202 201 202 203 207 212 212 214 220 227 232 236 242 247 242 239 244 247 249 253 256 260 261 260 261 262 265 267 269 271 268 263 263 267 275 281 285 289 291 291 292 291 290 288 287 287 285 281 277 276 277 279
210 214 219 215 213 209 208 209 206 206 208 210 210 203 195 173 159 209 215 282 230 225 235 216 197 200 217 212 205 202 202 206 211 209 203 202 205 207 210 212 213 216 220 226 233 238 243 248 247 244 246 250 253 257 260 262 262 261 261 263 264 265 265 263 254 250 256 265 273 281 285 289 290 291 291 291 290 288 287 286 283 280 278 278 280 281
201 211 215 209 210 210 209 210 210 208 210 213 213 209 206 204 189 185 200 192 182 188 195 188 187 203 202 196 200 201 202 206 210 211 208 208 210 210 211 211 214 219 222 227 232 236 241 246 248 246 247 251 254 257 260 261 262 262 262 263 262 262 259 251 244 246 257 267 275 281 285 288 291 292 292 292 292 291 291 290 289 287 286 286 285 283
201 210 213 205 207 211 208 209 211 210 212 216 214 213 216 213 209 202 199 191 167 140 153 176 177 215 183 173 192 199 202 205 207 210 210 210 212 213 213 214 217 222 224 229 231 235 241 245 247 248 249 253 253 255 258 259 261 261 260 260 258 256 250 240 239 248 259 269 275 281 287 292 294 294 295 295 294 293 294 295 295 294 292 291 287 282
202 214 212 202 205 209 209 208 207 206 209 210 208 212 217 213 215 237 220 174 167 146 164 189 162 151 167 165 183 196 202 203 202 206 209 212 214 216 217 217 221 224 226 230 233 238 247 251 254 255 256 258 256 258 261 262 261 258 254 253 250 246 239 235 241 253 262 268 273 282 290 294 295 296 297 297 295 293 292 293 295 295 293 290 284 278
199 217 213 205 205 206 206 211 213 212 209 205 206 212 213 210 221 236 236 125 143 134 179 203 171 166 173 168 177 192 201 202 201 203 208 214 217 219 221 221 223 226 228 232 235 241 251 257 260 260 262 265 264 263 264 263 258 251 246 243 240 236 233 236 247 256 261 265 273 283 290 292 295 296 298 297 293 290 288 288 289 290 289 286 281 277
200 218 216 208 208 204 200 207 218 219 218 217 215 212 204 198 214 225 228 189 151 129 217 200 185 195 196 184 179 188 198 202 204 206 211 215 217 220 222 222 224 228 231 235 237 243 251 255 258 261 265 268 267 263 260 257 252 244 240 237 233 231 231 239 248 252 257 265 276 286 289 292 294 295 295 293 291 289 287 287 287 288 286 283 280 278
196 211 222 207 206 205 201 206 214 215 216 221 223 215 206 207 211 212 214 209 166 153 193 175 183 219 212 196 189 194 199 202 206 209 213 215 214 216 219 221 226 228 232 236 238 243 248 251 256 262 267 268 266 258 249 245 243 239 235 232 229 229 231 238 244 250 259 270 279 285 286 288 291 292 293 292 292 291 290 291 291 290 287 283 280 279
194 206 221 199 199 207 208 210 213 211 209 212 212 208 205 207 207 204 211 213 180 147 156 159 199 231 215 202 198 203 205 205 207 207 208 211 211 213 217 222 225 226 230 236 239 242 246 252 259 263 268 267 260 249 239 235 232 231 230 226 224 229 233 239 246 252 261 267 271 274 275 279 283 286 289 291 292 294 296 297 296 294 291 287 284 283
198 206 218 203 195 207 213 213 215 216 216 215 212 209 208 207 200 191 205 212 198 172 167 170 209 229 205 195 193 202 207 207 207 207 208 210 211 214 217 221 223 226 231 238 241 244 247 254 260 262 265 260 249 240 234 229 224 223 225 223 223 230 235 241 247 251 257 261 263 266 268 272 276 280 284 288 292 295 297 298 297 296 294 291 289 287
208 208 222 224 212 212 216 217 219 221 225 225 221 217 216 213 207 200 201 205 192 170 159 160 166 219 195 188 187 196 205 207 207 210 212 213 213 214 215 215 221 227 233 241 245 247 249 253 256 258 258 251 240 233 229 224 221 220 223 224 226 232 237 243 248 252 258 261 264 267 268 272 275 279 284 288 292 294 295 295 295 295 295 293 292 290
211 214 225 232 236 223 216 220 223 225 225 220 218 218 217 217 214 211 215 210 194 183 171 151 101 194 189 189 191 195 201 207 210 213 215 215 211 211 213 215 222 229 235 241 246 250 253 254 255 256 253 245 234 227 225 222 220 221 224 228 232 237 242 248 252 256 259 261 264 268 271 275 278 282 286 288 290 291 291 292 292 293 292 291 291 290
208 216 222 221 234 209 205 216 218 217 215 211 211 214 217 219 216 210 211 204 194 197 196 191 185 183 189 193 194 195 199 203 208 212 216 216 210 210 214 218 224 231 235 241 248 253 256 256 256 254 249 240 227 222 222 221 221 224 229 234 239 243 248 252 255 258 258 259 263 267 273 277 279 283 285 286 287 287 288 289 289 289 288 287 286 286
209 214 221 218 194 176 180 195 200 199 201 205 209 211 213 215 213 207 200 190 192 201 201 202 189 173 183 193 193 194 198 199 203 209 214 217 217 218 221 222 226 231 235 243 253 257 256 254 251 244 236 228 222 221 222 222 226 230 235 240 243 247 252 256 259 260 260 262 266 270 274 277 280 283 285 286 287 287 288 289 288 287 286 285 284 284
214 216 221 227 233 232 218 174 183 197 199 202 208 210 209 211 212 207 197 194 203 203 203 213 204 179 181 189 191 194 197 197 200 205 208 211 213 218 222 225 230 235 241 250 258 259 254 248 240 230 224 221 221 224 225 226 230 234 238 243 246 250 255 258 259 261 262 266 271 274 278 282 284 287 288 290 290 290 290 290 289 289 288 287 287 286
214 216 219 225 236 244 238 208 185 195 200 203 207 210 211 213 216 216 209 207 211 206 209 219 211 198 197 197 193 195 196 197 200 202 204 205 206 210 218 225 232 237 243 251 259 259 249 235 226 220 220 222 223 225 227 229 232 235 240 244 248 253 257 258 260 262 266 270 274 279 283 287 289 291 292 293 293 293 293 292 291 291 290 290 289 289
211 214 214 216 222 233 238 234 229 216 204 205 205 206 211 216 223 226 221 219 221 224 231 227 215 217 224 214 201 198 198 199 201 200 200 202 205 208 214 221 227 235 243 252 259 256 235 219 218 219 221 222 222 223 225 229 233 238 243 248 254 260 262 263 265 268 273 277 282 285 288 289 291 293 294 295 296 296 296 295 295 294 294 293 293 293
207 211 210 212 216 222 230 234 233 231 222 211 201 200 207 213 221 225 220 220 225 230 238 236 221 218 226 217 202 199 200 201 200 196 196 200 205 207 210 217 227 237 246 249 246 235 222 217 216 215 216 218 220 221 224 228 235 242 250 256 261 265 267 270 274 279 283 286 289 290 292 293 295 297 298 299 300 300 300 300 299 299 298 297 297 297
205 205 206 210 212 212 216 215 210 217 223 223 210 201 205 208 211 216 214 214 219 223 229 230 215 205 208 205 197 195 198 199 197 195 196 199 202 204 208 216 229 238 233 223 223 225 223 219 214 212 215 216 216 218 221 228 237 246 255 260 264 268 272 277 282 286 289 291 292 294 297 299 301 303 304 304 305 304 304 303 303 302 302 301 301 300
203 199 196 203 203 193 201 208 195 196 215 222 217 212 213 210 209 214 216 214 218 222 217 211 208 211 213 206 197 193 193 194 194 195 196 196 200 206 209 213 223 223 210 208 218 223 221 217 215 217 219 220 220 221 223 232 243 252 260 265 270 273 277 282 285 288 291 294 297 300 303 305 306 307 307 308 308 308 307 307 306 306 305 305 304 303
201 198 188 192 191 175 190 209 205 196 211 215 210 210 214 215 213 215 216 216 220 224 221 217 221 230 227 211 199 195 196 195 196 200 199 197 199 202 198 195 199 203 201 204 208 212 215 217 219 222 225 226 229 232 235 243 252 260 266 271 274 277 280 283 286 290 294 299 303 306 308 309 309 310 311 311 312 313 313 313 313 313 313 312 311 310
198 201 193 192 188 167 170 187 177 170 220 225 215 213 211 213 213 212 213 213 214 219 224 225 225 223 216 208 201 199 201 201 202 205 205 206 205 197 190 190 190 190 195 202 207 213 218 219 222 227 230 230 231 234 240 249 257 265 269 272 275 277 279 282 286 293 300 305 309 309 310 311 312 313 316 317 319 321 322 322 322 322 321 320 319 319
196 197 194 191 188 173 166 167 157 180 224 221 218 214 205 206 211 211 210 210 210 211 208 201 203 209 210 206 200 197 196 195 198 203 204 206 206 200 203 211 196 189 197 208 216 222 221 217 218 222 229 233 233 236 244 253 261 268 270 271 273 273 276 283 292 300 305 309 311 312 313 316 318 322 325 327 329 331 332 331 331 331 331 331 331 331
200 198 192 182 177 173 166 163 176 212 209 201 202 204 199 200 203 202 203 204 202 201 198 193 193 198 202 201 196 194 195 193 194 200 202 201 199 200 214 220 196 189 197 207 217 223 219 215 219 225 231 235 235 240 250 259 266 269 269 269 269 273 282 290 297 303 307 311 314 318 322 326 330 335 338 341 343 343 343 343 343 344 345 345 345 345
200 200 194 177 166 170 166 161 172 195 200 197 191 190 193 193 189 191 199 203 198 194 196 195 191 190 195 197 194 194 196 194 194 197 198 199 200 201 209 211 198 191 192 196 207 218 219 221 227 230 233 234 237 247 257 265 268 266 264 266 271 278 285 290 297 304 310 316 322 328 334 341 348 351 354 356 355 354 354 355 356 356 355 355 354 353
195 201 198 188 178 178 175 164 143 163 212 205 189 181 186 185 182 190 206 210 199 193 194 192 188 190 194 194 193 194 193 194 198 199 197 199 200 200 203 205 199 192 189 192 203 215 220 224 228 229 231 236 245 256 263 265 264 259 262 270 274 278 283 290 301 310 318 327 337 348 358 4 7 8 8 7 5 4 6 6 5 4 3 2 0 359
191 199 204 201 192 186 184 178 170 202 222 214 201 196 196 195 198 203 218 221 206 194 191 189 186 189 196 197 198 198 195 197 203 204 201 200 198 196 201 201 194 188 188 190 201 215 221 224 226 227 233 241 251 260 263 262 259 260 268 272 271 272 279 290 303 314 336 359 14 22 23 22 21 20 18 16 15 15 15 14 11 10 8 6 4 3
182 190 198 199 191 186 188 188 198 212 220 214 206 205 208 214 215 210 217 224 208 194 192 194 187 185 195 202 205 207 205 209 215 212 202 197 193 194 198 195 188 187 187 190 204 219 223 224 225 228 236 246 255 260 260 257 258 264 267 264 258 256 261 270 291 8 39 43 42 38 34 33 31 29 27 24 24 23 21 18 16 14 11 9 8 6
180 185 192 196 191 188 189 192 204 215 214 203 199 203 210 214 215 213 213 215 205 195 195 199 193 189 197 205 210 214 214 216 224 220 204 192 189 193 193 187 185 187 190 198 215 223 221 222 225 230 239 249 254 255 253 252 255 256 250 240 231 224 209 174 104 74 62 56 52 47 44 42 39 36 33 31 30 28 24 21 19 17 15 12 11 8
189 191 195 199 196 194 197 202 215 225 222 210 199 201 207 210 216 220 219 216 211 201 198 199 198 197 200 205 210 217 213 203 203 211 203 192 189 194 192 187 186 187 190 203 221 224 220 222 226 234 243 248 248 247 243 240 235 227 219 212 203 184 150 117 94 80 70 63 59 56 54 51 45 40 36 33 31 29 25 23 21 19 17 15 13 10
201 201 202 203 201 196 194 195 206 233 230 222 209 206 210 216 224 228 224 221 221 211 203 207 209 204 202 202 202 201 195 188 187 195 199 194 192 197 197 191 186 184 190 209 224 224 223 226 230 235 240 240 239 235 226 215 204 198 195 187 170 144 120 103 92 84 78 73 69 65 60 56 49 43 38 34 31 28 25 23 21 19 17 16 14 13
209 207 205 204 204 199 194 200 219 236 236 230 223 221 224 227 230 230 225 223 225 219 212 214 217 214 208 201 194 185 182 186 188 186 187 190 195 201 201 194 186 183 193 213 223 224 227 230 229 230 232 231 227 217 205 193 182 177 171 159 144 127 112 102 96 92 87 81 76 69 63 57 49 42 36 32 29 25 22 20 19 17 17 16 14 14
210 211 212 212 213 213 214 220 230 236 237 237 232 229 229 230 231 230 225 222 222 221 219 216 215 214 205 193 188 184 181 185 188 182 179 184 193 199 199 194 189 188 196 209 218 222 228 227 223 225 226 219 208 200 193 181 164 153 146 139 131 119 109 105 101 98 92 84 77 66 57 51 43 35 31 28 25 22 19 17 16 15 14 14 13 13
211 211 213 215 217 220 224 229 231 231 234 238 234 226 222 222 227 229 227 225 222 221 221 216 211 208 199 189 187 186 182 183 185 181 179 183 190 195 195 192 191 192 199 208 215 220 224 223 220 219 211 201 194 190 181 164 148 140 135 130 123 115 111 108 103 97 89 79 70 57 47 42 35 28 25 22 20 18 16 14 14 13 12 11 11 12
215 213 214 217 218 220 224 228 229 228 227 227 226 224 222 224 228 229 227 227 226 223 220 215 208 203 196 190 187 187 186 185 184 182 181 183 190 195 193 190 191 195 201 209 214 217 219 219 216 207 194 188 185 176 162 152 143 136 132 128 122 118 115 111 103 94 81 68 59 49 41 35 29 23 20 17 15 14 14 13 13 12 11 10 10 11
215 215 217 221 224 225 227 228 227 223 223 224 225 224 223 226 233 232 226 224 225 223 220 215 208 202 197 191 188 188 188 186 185 185 183 185 192 197 194 191 195 200 205 210 212 211 213 212 205 191 180 177 173 163 153 146 140 135 132 129 125 124 123 118 109 96 77 60 51 45 39 31 25 20 17 14 12 11 12 13 12 12 11 9 9 11
215 213 214 218 222 224 225 225 223 223 226 231 231 225 219 219 225 225 220 218 219 219 215 208 201 198 197 192 187 187 188 187 186 185 185 188 194 195 191 190 196 202 207 209 209 209 207 199 187 177 169 165 163 156 148 142 138 136 135 134 132 132 128 120 110 96 77 56 46 42 38 30 23 18 16 13 9 9 11 13 14 14 12 9 8 10
216 217 215 215 218 222 224 226 228 232 236 238 234 227 218 216 217 215 212 212 212 207 202 196 189 188 191 191 188 186 187 186 182 181 187 194 194 190 188 194 201 205 206 206 206 205 195 181 171 165 161 159 156 150 144 141 141 141 140 138 136 132 124 114 103 88 68 47 37 36 35 30 21 14 14 12 9 8 10 12 14 16 14 10 9 9
218 220 219 219 225 234 236 234 235 239 241 240 238 232 224 218 213 207 203 202 196 188 184 184 182 180 181 183 182 181 184 184 182 182 189 193 191 188 194 202 206 206 205 205 204 196 181 168 163 161 159 156 153 148 145 144 144 143 141 137 131 124 114 104 92 77 59 40 28 27 30 30 21 11 9 10 8 7 9 11 13 15 15 12 10 9
Height
3070 3071 3070 3069 3072 3077 3081 3084 3088 3093 3097 3099 3100 3102 3104 3105 3107 3109 3111 3113 3115 3116 3118 3118 3117 3118 3119 3119 3118 3118 3120 3121 3119 3119 3121 3124 3127 3131 3134 3136 3138 3140 3141 3142 3144 3145 3146 3147 3148 3149 3150 3150 3150 3151 3152 3153 3154 3154 3155 3156 3157 3158 3158 3158 3158 3158 3159 3160 3160 3161 3161 3160 3160 3160 3161 3161 3161 3161 3160 3160 3159 3158 3158 3157 3156 3155
3068 3066 3064 3068 3073 3079 3083 3086 3089 3092 3095 3097 3098 3101 3102 3104 3106 3108 3110 3112 3113 3115 3115 3115 3115 3116 3118 3118 3117 3118 3120 3119 3119 3120 3121 3123 3127 3130 3134 3135 3137 3138 3140 3141 3143 3144 3146 3146 3147 3148 3150 3150 3151 3151 3152 3153 3153 3154 3154 3155 3156 3158 3158 3159 3159 3158 3159 3159 3160 3160 3161 3161 3160 3160 3160 3160 3160 3159 3159 3159 3159 3158 3157 3156 3155 3154
3063 3061 3063 3070 3075 3080 3083 3086 3089 3091 3093 3095 3097 3099 3100 3102 3105 3107 3109 3111 3112 3113 3113 3113 3113 3115 3117 3117 3117 3119 3119 3119 3120 3121 3122 3124 3127 3130 3132 3134 3136 3137 3139 3141 3143 3144 3145 3146 3147 3148 3149 3150 3151 3151 3152 3153 3153 3154 3154 3155 3156 3157 3158 3159 3159 3159 3159 3159 3159 3159 3160 3160 3160 3160 3160 3159 3159 3159 3158 3158 3158 3157 3156 3155 3154 3153
3059 3059 3064 3071 3075 3079 3082 3084 3087 3090 3091 3093 3095 3097 3098 3101 3104 3106 3108 3110 3111 3111 3111 3111 3112 3113 3115 3116 3116 3118 3118 3118 3119 3120 3121 3124 3127 3129 3131 3134 3135 3137 3138 3140 3142 3143 3145 3146 3147 3148 3149 3150 3151 3152 3152 3153 3153 3154 3154 3155 3156 3157 3158 3158 3159 3159 3159 3159 3159 3159 3159 3159 3159 3159 3159 3159 3159 3158 3158 3157 3156 3156 3155 3154 3153 3152
3058 3060 3065 3071 3074 3077 3080 3082 3085 3087 3089 3091 3093 3095 3097 3100 3103 3105 3108 3109 3109 3109 3109 3110 3112 3113 3113 3113 3114 3115 3116 3116 3116 3117 3121 3124 3126 3129 3131 3134 3136 3137 3138 3139 3141 3142 3144 3145 3147 3148 3149 3150 3151 3151 3152 3152 3153 3153 3154 3154 3155 3156 3157 3158 3158 3159 3159 3159 3158 3158 3158 3158 3158 3158 3158 3158 3157 3157 3157 3156 3155 3154 3154 3153 3152 3151
3059 3062 3066 3070 3073 3075 3078 3080 3082 3085 3087 3090 3091 3094 3097 3099 3102 3104 3106 3108 3108 3108 3108 3109 3112 3113 3113 3112 3111 3112 3113 3114 3114 3116 3121 3124 3127 3129 3130 3133 3135 3136 3137 3138 3140 3141 3143 3145 3146 3147 3149 3150 3150 3150 3151 3152 3152 3152 3153 3154 3154 3155 3155 3156 3157 3158 3158 3158 3158 3157 3157 3157 3156 3156 3156 3156 3156 3156 3155 3154 3153 3153 3152 3151 3150 3149
3058 3062 3065 3068 3071 3073 3076 3078 3080 3084 3086 3087 3089 3094 3096 3098 3100 3103 3105 3107 3107 3107 3108 3108 3110 3111 3112 3111 3110 3110 3112 3113 3114 3118 3121 3123 3126 3128 3129 3131 3133 3134 3136 3137 3139 3140 3141 3144 3145 3147 3148 3149 3150 3150 3150 3151 3151 3152 3152 3153 3153 3154 3154 3155 3156 3156 3157 3157 3157 3156 3156 3155 3155 3155 3155 3155 3154 3154 3153 3153 3152 3151 3150 3149 3148 3146
3056 3061 3064 3066 3069 3071 3072 3074 3078 3082 3084 3085 3089 3094 3095 3096 3099 3102 3104 3106 3106 3107 3107 3106 3107 3108 3109 3109 3108 3109 3111 3112 3114 3118 3119 3120 3124 3126 3127 3130 3132 3133 3134 3135 3137 3139 3140 3142 3144 3145 3147 3148 3149 3149 3149 3149 3150 3150 3151 3152 3152 3153 3154 3154 3154 3155 3155 3155 3155 3155 3155 3154 3154 3154 3153 3153 3153 3152 3151 3151 3150 3149 3148 3147 3146 3144
3055 3059 3061 3063 3067 3068 3069 3072 3077 3081 3083 3085 3091 3094 3095 3097 3099 3101 3104 3104 3105 3106 3104 3103 3105 3106 3107 3107 3106 3108 3111 3111 3112 3115 3117 3119 3123 3125 3126 3129 3130 3131 3133 3134 3136 3137 3139 3141 3143 3144 3145 3146 3147 3148 3148 3148 3149 3149 3150 3151 3151 3152 3152 3153 3153 3153 3153 3154 3154 3154 3153 3153 3153 3152 3152 3151 3151 3150 3149 3149 3148 3147 3146 3145 3144 3143
3056 3058 3061 3064 3064 3064 3067 3073 3077 3081 3083 3087 3092 3094 3095 3097 3099 3101 3103 3103 3105 3103 3099 3100 3103 3104 3105 3105 3106 3108 3109 3110 3111 3114 3117 3119 3123 3124 3125 3127 3128 3130 3131 3133 3135 3136 3138 3140 3142 3143 3144 3145 3146 3146 3147 3147 3148 3148 3149 3150 3150 3151 3151 3151 3152 3152 3152 3153 3152 3152 3152 3152 3152 3151 3151 3150 3149 3148 3147 3146 3146 3145 3144 3143 3142 3141
3056 3059 3062 3062 3062 3064 3069 3074 3077 3081 3084 3088 3092 3093 3095 3097 3098 3101 3101 3102 3104 3099 3094 3098 3101 3102 3104 3104 3104 3106 3107 3110 3112 3114 3116 3118 3120 3122 3124 3125 3127 3129 3130 3131 3134 3135 3136 3138 3140 3142 3143 3143 3144 3145 3145 3146 3147 3148 3148 3149 3149 3149 3150 3150 3151 3151 3151 3151 3151 3151 3151 3151 3150 3150 3149 3148 3147 3146 3145 3144 3143 3142 3141 3141 3140 3139
3055 3057 3058 3059 3061 3065 3069 3073 3077 3080 3084 3087 3090 3092 3094 3096 3098 3100 3100 3100 3100 3095 3092 3097 3099 3101 3102 3100 3102 3104 3106 3110 3112 3113 3114 3116 3118 3121 3122 3124 3127 3128 3130 3131 3133 3134 3135 3136 3139 3140 3141 3142 3142 3143 3143 3144 3146 3147 3147 3147 3148 3148 3148 3149 3149 3149 3150 3150 3150 3150 3149 3149 3149 3148 3147 3146 3146 3144 3143 3142 3141 3140 3139 3139 3138 3138
3052 3054 3055 3058 3061 3064 3067 3071 3075 3079 3081 3084 3087 3090 3092 3094 3097 3098 3097 3097 3095 3093 3093 3095 3097 3099 3098 3097 3101 3104 3105 3108 3110 3111 3113 3115 3117 3120 3121 3123 3125 3128 3129 3131 3132 3133 3134 3135 3137 3138 3139 3140 3141 3141 3142 3143 3144 3145 3146 3146 3146 3147 3147 3147 3148 3148 3148 3148 3148 3148 3147 3147 3146 3146 3145 3144 3143 3142 3141 3141 3140 3139 3138 3138 3137 3137
3051 3053 3054 3056 3058 3060 3063 3066 3069 3073 3076 3079 3082 3085 3087 3089 3092 3094 3095 3094 3093 3093 3093 3094 3096 3096 3096 3097 3100 3102 3104 3106 3107 3110 3114 3115 3117 3119 3120 3122 3124 3126 3128 3130 3131 3132 3133 3134 3135 3136 3137 3138 3139 3140 3140 3141 3142 3143 3144 3144 3145 3145 3146 3146 3146 3146 3146 3146 3146 3146 3145 3145 3144 3143 3143 3142 3141 3141 3140 3139 3139 3138 3137 3137 3136 3136
3047 3048 3048 3051 3054 3057 3060 3063 3066 3070 3074 3077 3080 3083 3085 3084 3086 3090 3091 3092 3092 3092 3092 3094 3095 3095 3094 3096 3098 3100 3103 3105 3107 3110 3114 3116 3116 3118 3120 3122 3123 3125 3127 3129 3130 3131 3132 3132 3133 3134 3135 3136 3138 3138 3138 3139 3140 3141 3142 3142 3143 3143 3143 3144 3144 3144 3145 3144 3144 3144 3143 3143 3142 3142 3141 3140 3140 3139 3139 3138 3138 3137 3137 3136 3135 3135
3044 3044 3045 3049 3053 3055 3059 3062 3067 3071 3073 3075 3079 3082 3081 3080 3083 3087 3088 3088 3089 3091 3092 3093 3093 3093 3094 3095 3097 3099 3102 3104 3108 3110 3112 3114 3115 3116 3118 3120 3123 3124 3126 3127 3128 3129 3130 3130 3131 3132 3133 3134 3135 3136 3136 3137 3138 3138 3139 3139 3140 3140 3141 3142 3142 3143 3143 3143 3142 3142 3142 3142 3141 3141 3140 3139 3139 3138 3138 3138 3137 3136 3136 3135 3134 3133
3043 3044 3046 3050 3052 3055 3059 3062 3065 3068 3070 3073 3076 3075 3075 3079 3085 3086 3085 3087 3087 3089 3091 3092 3092 3092 3094 3095 3097 3099 3101 3104 3107 3109 3111 3113 3114 3115 3117 3119 3122 3123 3125 3126 3126 3126 3127 3128 3128 3129 3130 3131 3132 3133 3134 3135 3135 3136 3136 3136 3137 3138 3139 3140 3141 3141 3141 3141 3141 3141 3141 3140 3139 3139 3138 3138 3138 3137 3137 3136 3136 3135 3134 3133 3132 3131
3042 3044 3047 3049 3051 3054 3059 3062 3064 3066 3068 3070 3070 3071 3076 3083 3086 3083 3083 3086 3086 3088 3091 3091 3091 3091 3092 3093 3095 3097 3099 3101 3104 3107 3109 3111 3113 3115 3117 3118 3120 3122 3123 3123 3124 3124 3125 3125 3126 3127 3128 3129 3129 3130 3131 3132 3132 3133 3133 3133 3135 3136 3137 3138 3139 3139 3139 3140 3140 3139 3139 3138 3137 3137 3136 3136 3136 3136 3135 3135 3134 3133 3132 3131 3130 3130
3043 3044 3045 3048 3051 3054 3058 3061 3062 3064 3066 3068 3069 3071 3077 3080 3080 3079 3082 3082 3084 3089 3092 3091 3092 3091 3089 3089 3091 3093 3096 3098 3101 3104 3106 3109 3111 3113 3115 3117 3119 3120 3120 3121 3121 3122 3123 3123 3124 3125 3126 3126 3126 3128 3128 3129 3129 3130 3131 3132 3133 3135 3136 3137 3137 3137 3138 3137 3137 3137 3137 3136 3136 3135 3135 3135 3134 3134 3134 3133 3132 3131 3131 3130 3129 3128
3042 3043 3044 3046 3050 3054 3056 3056 3056 3058 3062 3066 3069 3072 3074 3076 3075 3076 3079 3078 3080 3087 3091 3091 3092 3089 3086 3088 3090 3091 3093 3095 3098 3101 3103 3106 3108 3110 3113 3115 3116 3117 3118 3118 3119 3120 3120 3121 3122 3123 3124 3124 3124 3125 3125 3125 3126 3128 3129 3131 3132 3134 3134 3135 3135 3135 3135 3135 3135 3135 3135 3134 3134 3134 3133 3133 3132 3132 3131 3131 3130 3130 3129 3128 3127 3126
3041 3042 3043 3045 3049 3051 3050 3049 3050 3054 3058 3062 3065 3067 3069 3071 3073 3075 3077 3076 3077 3082 3086 3089 3088 3084 3084 3088 3090 3091 3093 3094 3095 3098 3101 3103 3106 3109 3111 3113 3114 3116 3116 3116 3117 3118 3118 3120 3121 3122 3122 3122 3122 3122 3122 3123 3125 3126 3128 3130 3131 3132 3132 3133 3133 3133 3133 3133 3133 3133 3133 3133 3133 3132 3132 3131 3131 3130 3129 3129 3128 3128 3127 3126 3125 3124
3039 3041 3042 3044 3046 3045 3045 3048 3051 3055 3058 3059 3062 3064 3065 3068 3070 3072 3074 3073 3074 3076 3079 3082 3082 3080 3082 3086 3089 3091 3092 3093 3095 3097 3099 3101 3104 3107 3109 3111 3113 3114 3114 3115 3115 3117 3118 3119 3119 3119 3119 3119 3119 3119 3120 3122 3123 3125 3127 3129 3130 3130 3131 3131 3131 3132 3131 3131 3131 3131 3131 3131 3131 3131 3131 3130 3129 3128 3128 3127 3126 3125 3125 3124 3123 3122
3039 3041 3041 3042 3043 3044 3046 3050 3053 3055 3057 3059 3061 3063 3065 3067 3068 3069 3070 3070 3072 3074 3075 3077 3078 3078 3080 3083 3086 3089 3091 3092 3094 3095 3097 3100 3102 3105 3108 3109 3110 3111 3112 3113 3114 3115 3117 3117 3116 3117 3117 3117 3117 3118 3120 3121 3123 3124 3126 3127 3128 3129 3129 3130 3130 3130 3129 3129 3129 3129 3129 3129 3129 3129 3129 3128 3128 3127 3126 3125 3124 3123 3122 3121 3120 3119
3038 3040 3040 3041 3043 3044 3047 3049 3051 3053 3056 3057 3058 3060 3062 3064 3065 3067 3068 3069 3071 3072 3074 3076 3078 3079 3080 3081 3084 3087 3090 3092 3093 3094 3096 3099 3101 3104 3106 3107 3108 3109 3111 3111 3112 3113 3114 3114 3115 3115 3115 3116 3117 3118 3120 3121 3123 3124 3125 3126 3127 3128 3128 3128 3128 3128 3128 3128 3127 3127 3127 3127 3127 3127 3127 3126 3126 3125 3124 3123 3122 3121 3120 3119 3117 3116
3036 3038 3039 3041 3042 3044 3045 3047 3048 3050 3052 3054 3055 3057 3059 3061 3063 3066 3067 3068 3069 3070 3071 3073 3075 3077 3078 3080 3083 3085 3088 3090 3091 3093 3096 3098 3100 3102 3103 3105 3106 3108 3109 3109 3110 3112 3113 3113 3114 3114 3115 3116 3117 3118 3119 3120 3122 3123 3124 3125 3126 3126 3126 3126 3126 3126 3126 3126 3125 3125 3125 3125 3125 3125 3124 3124 3123 3123 3122 3121 3120 3118 3117 3116 3114 3113
3035 3037 3038 3040 3041 3042 3044 3044 3044 3046 3048 3051 3053 3054 3057 3059 3061 3062 3064 3065 3066 3067 3068 3069 3070 3073 3076 3078 3081 3083 3085 3087 3090 3092 3095 3097 3099 3100 3102 3103 3105 3106 3107 3108 3109 3111 3112 3112 3112 3113 3114 3115 3116 3118 3119 3120 3121 3122 3123 3123 3124 3124 3124 3124 3124 3124 3124 3123 3123 3123 3123 3123 3123 3122 3122 3121 3120 3120 3119 3118 3117 3116 3114 3113 3112 3110
3035 3036 3038 3039 3040 3041 3042 3043 3043 3045 3047 3048 3050 3053 3055 3057 3059 3061 3062 3063 3064 3066 3067 3067 3068 3071 3073 3076 3078 3081 3083 3085 3087 3089 3092 3095 3096 3098 3100 3101 3103 3105 3106 3107 3108 3109 3110 3111 3111 3112 3114 3115 3116 3117 3118 3119 3120 3121 3121 3122 3122 3122 3122 3122 3122 3122 3122 3121 3121 3121 3121 3120 3120 3119 3119 3118 3117 3117 3116 3115 3114 3112 3111 3110 3108 3107
3033 3034 3036 3038 3039 3039 3041 3042 3043 3044 3045 3047 3049 3051 3053 3055 3057 3059 3060 3061 3063 3064 3065 3066 3067 3069 3071 3074 3076 3078 3080 3082 3084 3087 3089 3091 3094 3096 3098 3100 3102 3103 3105 3106 3107 3107 3108 3109 3110 3112 3113 3114 3116 3117 3118 3119 3119 3120 3120 3120 3121 3121 3121 3121 3121 3120 3120 3119 3119 3119 3118 3118 3117 3117 3116 3115 3114 3114 3113 3112 3111 3109 3108 3106 3105 3103
3031 3033 3035 3038 3038 3039 3040 3041 3042 3043 3044 3045 3047 3049 3051 3053 3055 3056 3058 3060 3061 3062 3064 3065 3067 3068 3070 3072 3075 3076 3078 3080 3082 3085 3088 3091 3093 3095 3097 3099 3101 3102 3104 3104 3105 3106 3107 3108 3109 3111 3112 3113 3114 3116 3117 3117 3118 3118 3119 3119 3119 3119 3119 3119 3119 3118 3118 3117 3117 3116 3116 3115 3115 3114 3113 3113 3112 3111 3110 3108 3107 3106 3104 3103 3101 3100
3030 3032 3034 3036 3037 3038 3039 3040 3041 3042 3043 3044 3045 3047 3049 3051 3053 3055 3056 3058 3060 3061 3063 3064 3066 3067 3069 3072 3074 3076 3078 3080 3083 3085 3088 3090 3092 3094 3097 3099 3100 3102 3103 3103 3103 3104 3105 3107 3108 3110 3111 3112 3113 3114 3115 3116 3116 3117 3117 3117 3117 3117 3117 3117 3116 3116 3115 3115 3114 3114 3113 3113 3112 3112 3111 3110 3109 3108 3107 3105 3104 3102 3101 3099 3098 3096
3028 3030 3032 3034 3037 3038 3039 3039 3040 3041 3042 3043 3044 3045 3047 3049 3052 3053 3054 3056 3057 3060 3062 3063 3064 3066 3069 3071 3073 3075 3077 3080 3082 3084 3086 3088 3091 3093 3096 3098 3100 3101 3101 3101 3102 3103 3105 3106 3107 3108 3109 3110 3110 3112 3113 3114 3115 3115 3115 3115 3115 3115 3115 3115 3114 3113 3113 3113 3112 3112 3111 3110 3110 3109 3108 3108 3107 3105 3104 3102 3101 3099 3097 3096 3094 3092
3026 3028 3030 3033 3035 3036 3037 3039 3040 3040 3042 3042 3043 3044 3046 3048 3050 3051 3052 3054 3055 3057 3060 3061 3062 3064 3067 3069 3071 3073 3076 3078 3080 3082 3084 3086 3089 3093 3096 3098 3099 3099 3100 3101 3102 3103 3104 3106 3107 3107 3108 3109 3110 3111 3111 3112 3113 3113 3113 3114 3114 3114 3113 3112 3112 3111 3111 3110 3110 3109 3109 3108 3108 3107 3106 3105 3104 3103 3101 3100 3098 3096 3094 3092 3091 3089
3024 3027 3030 3032 3034 3035 3037 3038 3039 3040 3041 3041 3042 3043 3045 3047 3049 3050 3051 3052 3054 3056 3057 3059 3061 3063 3065 3066 3068 3071 3074 3076 3077 3079 3081 3084 3088 3092 3094 3096 3097 3098 3099 3100 3101 3103 3104 3105 3106 3107 3107 3108 3109 3110 3110 3111 3111 3112 3112 3112 3112 3112 3111 3110 3110 3109 3109 3109 3108 3108 3107 3106 3106 3105 3104 3103 3102 3100 3099 3097 3095 3093 3091 3089 3087 3085
3023 3026 3030 3032 3033 3035 3037 3038 3040 3043 3043 3041 3042 3043 3044 3046 3047 3048 3050 3050 3052 3054 3056 3058 3060 3062 3063 3065 3066 3068 3071 3073 3076 3078 3081 3084 3088 3090 3093 3095 3096 3097 3098 3099 3100 3102 3103 3104 3106 3106 3107 3107 3108 3109 3109 3110 3110 3111 3110 3110 3110 3109 3109 3109 3108 3108 3107 3107 3106 3106 3105 3105 3104 3103 3102 3101 3099 3098 3096 3094 3092 3090 3088 3086 3085 3083
3022 3025 3028 3031 3032 3034 3036 3038 3041 3044 3043 3042 3042 3043 3044 3045 3046 3047 3048 3049 3050 3052 3054 3056 3058 3060 3062 3064 3066 3068 3070 3073 3076 3078 3081 3084 3087 3090 3092 3093 3094 3095 3097 3099 3100 3101 3102 3104 3105 3105 3106 3106 3107 3107 3108 3109 3109 3109 3109 3108 3108 3108 3107 3107 3107 3106 3106 3105 3105 3104 3104 3103 3102 3101 3100 3098 3097 3096 3094 3092 3090 3088 3086 3084 3082 3080
3022 3024 3027 3030 3032 3034 3035 3037 3039 3041 3042 3042 3043 3043 3043 3044 3045 3046 3047 3047 3048 3050 3052 3054 3056 3058 3060 3062 3065 3067 3069 3071 3074 3077 3080 3083 3086 3089 3091 3092 3093 3095 3096 3098 3100 3101 3102 3103 3104 3104 3105 3106 3106 3107 3107 3108 3108 3107 3107 3107 3106 3106 3106 3106 3105 3105 3104 3104 3103 3103 3102 3101 3100 3099 3098 3097 3095 3094 3092 3090 3088 3086 3084 3081 3079 3077
3022 3023 3025 3028 3031 3033 3034 3036 3038 3040 3040 3041 3041 3042 3043 3043 3044 3045 3046 3046 3047 3048 3050 3052 3054 3056 3058 3061 3063 3065 3068 3070 3073 3075 3079 3082 3085 3087 3089 3091 3093 3094 3095 3097 3098 3100 3101 3102 3103 3103 3104 3104 3105 3106 3106 3106 3106 3106 3105 3105 3105 3105 3105 3105 3104 3104 3103 3103 3102 3102 3101 3100 3099 3098 3096 3095 3094 3092 3090 3088 3086 3084 3082 3080 3077 3075
3022 3023 3025 3027 3030 3032 3033 3035 3038 3039 3038 3038 3040 3041 3042 3043 3044 3045 3045 3045 3046 3047 3048 3050 3052 3054 3056 3059 3061 3063 3066 3069 3071 3073 3076 3079 3082 3084 3087 3089 3091 3093 3094 3096 3097 3099 3100 3101 3102 3103 3103 3104 3104 3105 3105 3105 3104 3104 3104 3104 3104 3104 3104 3104 3103 3103 3103 3102 3101 3101 3100 3099 3098 3097 3096 3094 3093 3091 3089 3087 3085 3083 3081 3078 3076 3073
3022 3024 3026 3027 3028 3030 3031 3032 3034 3035 3035 3037 3039 3041 3042 3043 3044 3045 3045 3043 3044 3046 3047 3049 3051 3053 3055 3057 3059 3061 3063 3065 3067 3069 3072 3075 3079 3082 3084 3087 3089 3091 3093 3095 3097 3098 3099 3100 3101 3102 3102 3103 3103 3103 3103 3103 3103 3103 3103 3103 3103 3103 3103 3103 3103 3102 3102 3101 3101 3100 3099 3098 3097 3096 3095 3094 3092 3091 3089 3087 3084 3082 3079 3077 3075 3072
3021 3023 3025 3026 3026 3027 3029 3031 3032 3032 3033 3035 3037 3038 3040 3042 3044 3045 3043 3041 3042 3045 3047 3049 3051 3053 3055 3057 3058 3059 3060 3063 3065 3067 3070 3074 3078 3081 3083 3086 3088 3090 3092 3094 3096 3097 3099 3100 3100 3101 3101 3102 3102 3102 3102 3102 3102 3102 3102 3102 3102 3102 3103 3102 3102 3102 3101 3100 3099 3099 3098 3097 3096 3096 3095 3093 3092 3090 3088 3086 3084 3081 3079 3077 3074 3072
3020 3022 3023 3025 3025 3027 3028 3030 3031 3032 3033 3034 3035 3036 3037 3040 3041 3040 3039 3041 3044 3046 3048 3049 3051 3053 3054 3056 3058 3059 3061 3064 3067 3069 3071 3074 3077 3080 3082 3085 3087 3089 3091 3093 3094 3096 3098 3099 3099 3100 3100 3100 3100 3100 3101 3101 3101 3101 3101 3101 3102 3102 3102 3102 3101 3101 3100 3099 3099 3098 3098 3097 3097 3096 3095 3093 3091 3089 3087 3086 3084 3081 3079 3076 3074 3071
3020 3021 3022 3023 3025 3026 3028 3029 3030 3030 3031 3032 3033 3034 3035 3036 3034 3034 3038 3043 3045 3046 3047 3049 3051 3052 3054 3056 3058 3059 3061 3065 3068 3070 3071 3073 3076 3078 3081 3083 3085 3087 3090 3092 3093 3095 3096 3097 3098 3098 3098 3099 3099 3099 3100 3100 3100 3101 3101 3101 3102 3102 3102 3101 3100 3100 3099 3099 3099 3098 3098 3098 3097 3096 3094 3093 3091 3089 3088 3086 3083 3081 3079 3077 3074 3072
3020 3021 3021 3022 3024 3025 3026 3028 3028 3028 3028 3029 3030 3030 3031 3031 3031 3034 3039 3043 3043 3044 3047 3048 3049 3051 3053 3054 3056 3058 3061 3064 3066 3068 3070 3073 3075 3077 3079 3081 3083 3086 3088 3090 3092 3093 3095 3096 3096 3097 3097 3097 3098 3099 3099 3100 3100 3101 3101 3101 3101 3101 3101 3100 3100 3100 3099 3099 3099 3099 3099 3098 3097 3096 3094 3093 3091 3089 3088 3086 3083 3081 3079 3077 3075 3072
3018 3019 3019 3020 3022 3023 3024 3024 3025 3025 3026 3027 3028 3028 3029 3030 3031 3034 3038 3039 3040 3043 3045 3046 3048 3049 3050 3052 3055 3057 3059 3062 3064 3066 3068 3071 3074 3076 3078 3080 3082 3084 3087 3089 3090 3092 3093 3094 3095 3096 3096 3096 3097 3098 3099 3099 3100 3101 3101 3100 3100 3100 3100 3100 3100 3100 3100 3100 3100 3100 3099 3098 3097 3096 3094 3093 3091 3089 3088 3086 3084 3082 3080 3078 3075 3073
3016 3017 3018 3019 3020 3021 3021 3022 3023 3023 3024 3025 3026 3027 3029 3030 3031 3033 3035 3037 3039 3041 3042 3043 3045 3046 3048 3051 3053 3056 3058 3060 3063 3065 3067 3070 3073 3075 3077 3080 3082 3083 3085 3087 3089 3090 3092 3093 3094 3095 3095 3096 3096 3097 3098 3099 3100 3100 3100 3100 3100 3100 3100 3100 3100 3101 3101 3101 3101 3100 3099 3098 3097 3095 3094 3093 3091 3090 3088 3086 3084 3082 3080 3078 3075 3073
3014 3016 3017 3018 3019 3019 3020 3020 3021 3022 3023 3024 3025 3025 3027 3028 3030 3032 3033 3035 3037 3038 3040 3041 3042 3044 3047 3049 3052 3054 3057 3059 3061 3064 3066 3069 3071 3073 3075 3078 3080 3082 3084 3086 3087 3089 3090 3091 3092 3093 3094 3095 3096 3097 3098 3098 3099 3099 3099 3099 3100 3100 3100 3101 3101 3101 3101 3101 3101 3100 3099 3098 3097 3095 3094 3093 3091 3090 3088 3086 3084 3082 3080 3077 3075 3072
3013 3014 3016 3016 3017 3017 3018 3019 3020 3021 3022 3023 3024 3024 3025 3027 3028 3030 3031 3033 3035 3036 3038 3039 3041 3043 3045 3047 3050 3053 3055 3057 3060 3062 3064 3067 3069 3072 3074 3077 3080 3082 3083 3085 3086 3088 3089 3090 3091 3092 3094 3095 3096 3097 3097 3098 3098 3098 3099 3099 3100 3101 3101 3102 3102 3102 3102 3101 3101 3100 3099 3098 3097 3096 3094 3093 3092 3090 3089 3087 3084 3082 3080 3077 3075 3072
3012 3013 3014 3014 3015 3016 3016 3017 3018 3020 3021 3022 3023 3024 3025 3026 3027 3028 3029 3031 3033 3034 3036 3037 3039 3042 3044 3046 3049 3052 3054 3057 3059 3061 3063 3066 3069 3071 3074 3077 3079 3081 3082 3083 3085 3087 3088 3090 3091 3092 3093 3094 3095 3096 3097 3097 3098 3098 3099 3100 3101 3101 3102 3102 3102 3102 3102 3101 3101 3100 3099 3098 3097 3096 3095 3093 3092 3090 3089 3087 3084 3082 3080 3077 3075 3073
3011 3011 3012 3012 3013 3014 3015 3016 3017 3018 3020 3021 3022 3023 3024 3024 3025 3026 3028 3029 3031 3032 3033 3035 3038 3041 3043 3045 3048 3050 3053 3056 3058 3061 3064 3066 3068 3071 3074 3076 3078 3080 3081 3083 3084 3086 3088 3089 3090 3092 3093 3094 3095 3096 3096 3097 3098 3099 3100 3101 3102 3102 3103 3103 3103 3103 3102 3102 3101 3100 3100 3099 3098 3096 3095 3094 3092 3090 3088 3087 3084 3082 3080 3077 3075 3073
3010 3010 3011 3011 3012 3013 3014 3016 3017 3018 3019 3020 3021 3022 3023 3023 3024 3025 3027 3028 3030 3031 3032 3033 3035 3039 3042 3045 3047 3050 3052 3055 3057 3060 3063 3066 3069 3071 3074 3076 3077 3079 3080 3082 3084 3085 3087 3089 3090 3091 3092 3093 3095 3096 3096 3098 3099 3100 3101 3102 3102 3103 3103 3103 3103 3103 3102 3102 3101 3100 3100 3099 3098 3097 3095 3094 3092 3090 3088 3086 3084 3082 3080 3078 3075 3073
3009 3009 3010 3011 3012 3013 3014 3015 3016 3017 3018 3019 3020 3021 3022 3022 3023 3024 3026 3028 3029 3030 3031 3033 3034 3037 3040 3043 3046 3049 3052 3055 3057 3059 3063 3066 3068 3071 3073 3075 3076 3078 3080 3082 3083 3085 3087 3088 3089 3091 3092 3093 3095 3096 3097 3098 3099 3100 3101 3102 3102 3103 3103 3103 3103 3103 3102 3102 3101 3101 3100 3099 3098 3097 3095 3094 3092 3090 3088 3086 3084 3083 3081 3078 3076 3073